Location: Newark
(51.5033°N, 0.1199°W)
Time: 15:03:15
(UTC+00:00)

O/OREOS (USA 219) - Visible Passes

Search period start: 23 October 2019 00:00
Search period end: 02 November 2019 00:00
Orbit: 621 x 646 km, 72.0° (Epoch: 22 May)

Date Brightness Start Highest point End Pass type
(mag) Time Alt. Az. Time Alt. Az. Time Alt. Az.
23 Oct ? 17:47:52 10° NW 17:52:19 51° WSW 17:56:46 10° S visible
24 Oct ? 18:10:21 10° NW 18:14:10 26° WSW 18:17:58 10° SSW visible
25 Oct ? 18:33:35 10° WNW 18:35:50 14° W 18:38:06 10° SW visible
26 Oct ? 17:14:43 10° NW 17:19:07 46° WSW 17:23:31 10° S visible
27 Oct ? 05:57:28 10° E 05:57:47 10° E 05:58:05 10° E visible
27 Oct ? 17:37:15 10° NW 17:40:56 24° WSW 17:44:36 10° SSW visible
28 Oct ? 18:00:44 10° WNW 18:02:35 12° W 18:04:26 10° WSW visible
30 Oct ? 05:23:08 10° ESE 05:24:31 11° E 05:25:54 10° ENE visible
31 Oct ? 05:42:39 10° SSE 05:46:08 22° ESE 05:49:40 10° NE visible
31 Oct ? 17:28:02 10° W 17:29:20 11° W 17:30:38 10° WSW visible
01 Nov ? 06:03:40 10° S 06:07:56 43° ESE 06:12:15 10° NE visible
